Albuquerque, NM

8:31 AM MDT on August 24, 2016 (GMT -0600)
Albuquerque International Sunport

Weather History for KABQ - September, 2013

Change the Weather History Date:

Friday, September 13, 2013

  Actual Average Record
Temperature  
Mean Temperature 68 °F 70 °F  
Max Temperature 73 °F 82 °F 93 °F (1956)
Min Temperature 62 °F 59 °F 41 °F (1903)
Degree Days  
Heating Degree Days 0 0  
Month to date heating degree days 0 0  
Since 1 July heating degree days 0 0  
Cooling Degree Days 3 6  
Month to date cooling degree days 137 98  
Year to date cooling degree days 1512 1255  
Growing Degree Days 17 (Base 50)    
Moisture  
Dew Point 58 °F    
Average Humidity 70    
Maximum Humidity 87    
Minimum Humidity 53    
Precipitation  
Precipitation 0.19 in 0.03 in 0.60 in (1988)
Month to date precipitation 1.85 0.47  
Year to date precipitation 5.74 6.75  
Snow  
Snow 0.00 in - - ()
Month to date snowfall 0.0  
Since 1 July snowfall 0.0  
Since 1 September snowfall 0.0  
Snow Depth 0.00 in    
Sea Level Pressure  
Sea Level Pressure 29.98 in    
Wind  
Wind Speed 7 mph (SSE)    
Max Wind Speed 22 mph    
Max Gust Speed 25 mph    
Visibility 10 miles    
Events Rain , Thunderstorm    
T = Trace of Precipitation, MM = Missing Value Source: NWS Daily Summary

Daily Weather History Graph

Daily Weather History Graph

Search for Another Location

Airport or City:

Trip Planner

Search our weather history database for the weather conditions in past years. The results will help you decide how hot, cold, wet, or windy it might be!

Date:

Astronomy

Sep. 13, 2013 Rise Set
Actual Time 6:48 AM MDT 7:15 PM MDT
Civil Twilight 6:22 AM MDT 7:41 PM MDT
Nautical Twilight 5:52 AM MDT 8:10 PM MDT
Astronomical Twilight 5:22 AM MDT 8:41 PM MDT
Moon 2:58 PM MDT (9/13) 12:30 AM MDT (9/13)
Length of Visible Light 13h 18m
Length of Day
12h 27m
Waxing Gibbous, 62% of the Moon is Illuminated
Sep 13
Waxing Gibbous
Sep 19
Full
Sep 26
Last Quarter
Oct 4
New
Oct 11
First Quarter

Hourly Weather History & Observations

Time (MDT) Temp. Dew Point Humidity Pressure Visibility Wind Dir Wind Speed Gust Speed Precip Events Conditions
12:52 AM 64.9 °F 60.1 °F 84% 29.99 in 10.0 mi Calm Calm - 0.00 in   Overcast
1:52 AM 63.0 °F 60.1 °F 90% 29.98 in 8.0 mi South 3.5 mph - 0.03 in Rain Rain
2:52 AM 64.0 °F 60.1 °F 87% 29.96 in 10.0 mi SE 3.5 mph - 0.01 in Rain Light Rain
3:52 AM 64.0 °F 60.1 °F 87% 29.95 in 10.0 mi NW 3.5 mph - 0.01 in   Overcast
4:38 AM 62.6 °F 60.8 °F 94% 30.15 in 10.0 mi North 6.9 mph - 0.00 in   Overcast
4:52 AM 63.0 °F 61.0 °F 93% 29.95 in 10.0 mi North 6.9 mph - 0.01 in Rain Light Rain
5:52 AM 63.0 °F 60.1 °F 90% 29.94 in 10.0 mi NNE 5.8 mph - 0.00 in   Overcast
6:36 AM 62.6 °F 60.8 °F 94% 30.14 in 2.5 mi North 3.5 mph - 0.03 in Rain Heavy Rain
6:52 AM 63.0 °F 60.1 °F 90% 29.95 in 4.0 mi NNE 5.8 mph - 0.09 in Rain Rain
7:52 AM 63.0 °F 59.0 °F 87% 29.96 in 7.0 mi SSE 3.5 mph - 0.01 in   Overcast
8:29 AM 62.6 °F 59.0 °F 88% 30.16 in 8.0 mi South 13.8 mph - 0.01 in Rain Light Rain
8:52 AM 62.1 °F 59.0 °F 90% 29.98 in 10.0 mi South 15.0 mph - 0.02 in Rain Light Rain
9:52 AM 63.0 °F 59.0 °F 87% 30.00 in 10.0 mi SSW 11.5 mph - 0.01 in   Overcast
10:26 AM 62.6 °F 59.0 °F 88% 30.19 in 10.0 mi SSE 13.8 mph - N/A   Overcast
10:52 AM 63.0 °F 59.0 °F 87% 29.96 in 10.0 mi SE 21.9 mph - 0.00 in Rain Light Rain
11:33 AM 64.4 °F 57.2 °F 77% 30.17 in 10.0 mi SE 3.5 mph - 0.00 in Rain Light Rain
11:52 AM 64.9 °F 57.0 °F 75% 29.99 in 10.0 mi West 4.6 mph - 0.00 in   Overcast
12:10 PM 62.6 °F 57.2 °F 82% 30.16 in 10.0 mi North 10.4 mph - 0.00 in Rain Light Rain
12:52 PM 64.9 °F 55.9 °F 73% 29.96 in 10.0 mi NNW 9.2 mph - 0.00 in   Mostly Cloudy
1:52 PM 66.9 °F 57.9 °F 73% 29.94 in 10.0 mi NNW 8.1 mph - N/A   Mostly Cloudy
2:52 PM 71.1 °F 57.0 °F 61% 29.90 in 10.0 mi WNW 6.9 mph - N/A   Mostly Cloudy
3:52 PM 70.0 °F 54.0 °F 57% 29.88 in 10.0 mi West 3.5 mph - N/A   Mostly Cloudy
4:52 PM 71.1 °F 55.0 °F 57% 29.88 in 10.0 mi SW 3.5 mph - N/A   Mostly Cloudy
5:52 PM 72.0 °F 54.0 °F 53% 29.87 in 10.0 mi East 6.9 mph - N/A   Mostly Cloudy
6:52 PM 70.0 °F 55.0 °F 59% 29.88 in 10.0 mi SSE 9.2 mph - N/A   Mostly Cloudy
7:07 PM 69.8 °F 55.4 °F 60% 30.09 in 10.0 mi SW 10.4 mph - N/A Thunderstorm Thunderstorm
7:52 PM 68.0 °F 55.0 °F 63% 29.90 in 10.0 mi South 6.9 mph - N/A   Mostly Cloudy
8:52 PM 66.0 °F 55.9 °F 70% 29.93 in 10.0 mi South 4.6 mph - N/A   Mostly Cloudy
9:52 PM 64.0 °F 55.9 °F 75% 29.93 in 10.0 mi SE 4.6 mph - N/A   Mostly Cloudy
10:52 PM 64.0 °F 55.9 °F 75% 29.94 in 10.0 mi East 3.5 mph - N/A   Mostly Cloudy
11:52 PM 62.1 °F 55.9 °F 80% 29.93 in 10.0 mi East 5.8 mph - N/A   Mostly Cloudy